Location: Alpha Ridge Park
(39.3209°N, 76.9128°W)
Time: 23:28:35
(UTC-04:00)

Transit 2A - Pass Details

Date: 29 May 2019
Orbit: 593 x 966 km, 66.7° (Epoch: 16 June)

Event Time Altitude Azimuth Distance (km) Brightness Sun altitude
Rises 06:25:36 0° 192° (SSW) 3,519 9.1 6.3°
Reaches altitude 10° 06:28:06 10° 188° (S) 2,619 8.5 6.8°
Maximum altitude 06:34:06 54° 113° (ESE) 1,150 7.5 7.8°
Drops below altitude 10° 06:40:18 10° 38° (NE) 2,708 10.0 9.0°
Sets 06:42:55 0° 34° (NE) 3,649 10.5 9.4°
